YAMAL 300K

Last updated on Thu Aug 13 2026 00:02:59 GMT+0000 (Coordinated Universal Time)

1 38978U 12061B 26224.46850059 .00000054 00000+0 00000+0 0 9995 2 38978 0.0210 199.5822 0000045 167.2159 305.7296 1.00271978 50198
UTC large
Height (km)
Speed (km/s)
/
Latitude / Longitude
Inclination (degrees)
Orbital Period (minutes)
Azimuth
Elevation
Range (km)
Doppler Factor

Next 0 passes for location: London (51.5072 / 0.1276)

No passes found over London.
YAMAL 300K